Location: ???????????
(55.5758°N, 38.4970°E)
Time: 17:16:27
(UTC+00:00)

ARGOS - Pass Details

Date: 15 November 2025
Orbit: 819 x 832 km, 98.5° (Epoch: 14 December)

Event Time Altitude Azimuth Distance (km) Brightness Sun altitude
Rises 01:49:41 0° 15° (NNE) 3,393 6.6 -26.6°
Reaches altitude 10° 01:52:03 10° 15° (NNE) 2,456 5.8 -26.2°
Maximum altitude 01:57:31 84° 288° (WNW) 845 3.0 -25.5°
Enters shadow 01:58:57 51° 206° (SSW) 1,038 3.4 -25.3°
